Showing default

SDS-4, 38339

Orbit data source: Space-Track

SDS-4, 38339 is a payload satellite owned by JAXA (JP) in SSO that was launched on Thu, 17 May 2012 UTC via an H-IIA 202 launch vehicle from the Tanegashima Space Center (TNSTA). Payload-class satellites include a variety of spacecraft equipped with specific instruments for various scientific and technological missions. These include communications satellites like Starlink; space stations such as the ISS; scientific satellites like the Hubble; Earth observation satellites from companies like Planet Labs, Umbra, and HawkEye 360; GPS; miniature CubeSats for education and research; and military/defense satellites.

Loading next visibility...
Identifier
38339, 2012-025C
Orbit
SSO
Country
Flag of JPJP / JPN
Related business
Manufacturer
JAXA
Mission
Operational Civil Technology
Bus & Motor
SDS-1, Unknown motor
Mass
50 kg wet, 50 kg dry
Launch date (UTC)
2012-05-17 (14 years ago)
Launch vehicle
H-IIA 202
Launch site
Tanegashima Space Center (TNSTA)
Object type
Payload
Rocket body
Debris
Shape & HBR
Box + 2 Pan, 0.8 m
Radar Cross Section
0.514 m², Medium (>0.1 m² and < 1m²)

Expand to show TLE details & history
Last TLE update: 7 hours ago

TLE from 7 hours ago
0 SDS-4
1 38339U 12025C   25354.57517797  .00001288  00000-0  19739-3 0  9994
2 38339  98.1425  84.4106 0007569 141.3790 218.7961 14.75396660729641
Epoch: 2025-12-20T13:48Z
TLE epoch observation values (Epoch: 2025-12-20T13:48:15.376Z)
Latitude
-0.00006°
Longitude
147.94653°
Altitude
651.045 km
Speed
7.53 km/s
True Right ascension
05h 37m 38s
True Declination
0° 00' 00"
Sunlit
Object was in full shadow at epoch
Visualization orbit readout
Latitude
Unknown
Longitude
Unknown
Altitude
Unknown
Speed
Unknown
Apparent Right ascension
Unknown
Apparent Declination
Unknown
Sunlit
N/A
Visualization observer readout
Local Sidereal Time
19:21:35
Azimuth
Unknown
Elevation
Unknown
Doppler factor
Unknown
Orbital elements
Apogee altitude
646.263 km
Perigee altitude
635.638 km
Semi-major axis
7,019.087 km
Eccentricity
0.00076
Inclination
98.1425°
RAAN
84.4106°
Arg. of periapsis
141.379°
True anomaly
218.7418°
Mean anomaly
218.7961°
Eccentric anomaly
218.76894°
Mean motion
3.69081 °/min
Orbital period
97.54 mins
BSTAR
0.00019739
Loading maneuver chart data...
Computing Atmospheric mass density...
Loading historical data...
Loading historical data...
Loading historical data...
Loading historical data...
Loading historical data...
Loading historical data...
Loading historical data...

Documentation

Showing up to 5 results
|